^^
Datos históricos de la estación: Murcia-Puente Tocinos
Diario Informe para Julio 16, 2019 Unidades:  Ingés    Métrico   Ambas
Diario Semanal Mensual Anual
  Máxima: Mínima: Promedio:
Temperatura: 84.6 °F 70.5 °F 76.8 °F
Punto de rocio: 71.1 °F 66.6 °F 68.5 °F
Humedad: 92% 55.6% 77%
Velocidad viento: 10mph 0mph 4.2mph
Racha viento: 18.4mph - -
Viento- - SSE
Presión: 30 in 30 in -
Precipitación: 0 in    
 
 
Tabla de datos para Julio 16, 2019
Hora Temperatura Punto de rocio Presión Viento Velocidad viento Racha viento Humedad Intensidad lluvia(por hora) Nubes
00:04 73.9 °F 70.9 °F 30 in SO 1.8 mph 4.6 mph 90% 0 in
00:09 73.9 °F 70.9 °F 30 in ONO 1.8 mph 5 mph 90% 0 in
00:14 73.8 °F 70.7 °F 30 in ONO 2 mph 4 mph 90.3% 0 in
00:19 73.8 °F 71.1 °F 30 in ONO 1.9 mph   91% 0 in
00:24 73.8 °F 71.1 °F 30 in Calm     91% 0 in
00:29 73.6 °F 70.9 °F 30 in Calm   2 mph 91% 0 in
00:34 73.6 °F 70.9 °F 30 in Calm   3.5 mph 91% 0 in
00:39 73.6 °F 70.9 °F 30 in Calm   3 mph 91% 0 in
00:44 73.6 °F 70.9 °F 30 in Calm   3 mph 91% 0 in
00:49 73.6 °F 70.7 °F 30 in OSO 0.1 mph 4.6 mph 91% 0 in
00:54 73.2 °F 70.5 °F 30 in Oeste 1.4 mph 5 mph 91% 0 in
00:59 73.2 °F 70.3 °F 30 in Oeste 1.5 mph 4 mph 91% 0 in
01:04 73.2 °F 70.3 °F 30 in Oeste 2 mph 2 mph 91% 0 in
01:09 73 °F 70.3 °F 30 in Oeste 1.9 mph   91% 0 in
01:14 73 °F 70.3 °F 30 in Calm     91% 0 in
01:19 73 °F 70.3 °F 30 in Calm     91% 0 in
01:24 73 °F 70.3 °F 30 in Calm     91% 0 in
01:29 73 °F 70.3 °F 30 in Calm     91% 0 in
01:34 73 °F 70.3 °F 30 in Calm     91.4% 0 in
01:39 73 °F 70.5 °F 30 in Calm     92% 0 in
01:44 73 °F 70.3 °F 30 in Calm   3.5 mph 91.4% 0 in
01:49 73 °F 70.3 °F 30 in SSE 0.1 mph 5.8 mph 91% 0 in
01:54 72.9 °F 70 °F 30 in Sur 1.8 mph 6 mph 91% 0 in
01:59 72.5 °F 69.6 °F 30 in Sur 2 mph 6 mph 91% 0 in
02:04 72.1 °F 69.4 °F 30 in SSO 3.6 mph 6 mph 91% 0 in
02:09 72.1 °F 69.4 °F 30 in SSO 3.6 mph 6 mph 91% 0 in
02:14 72.1 °F 69.4 °F 30 in SSO 3.6 mph 6.2 mph 91% 0 in
02:19 72.3 °F 69.4 °F 30 in SO 3.5 mph 6 mph 91% 0 in
02:24 72.3 °F 69.4 °F 30 in SSO 3.1 mph 5.2 mph 91% 0 in
02:29 72.5 °F 69.6 °F 30 in SSO 3.1 mph 5.8 mph 90.8% 0 in
02:34 72.7 °F 69.4 °F 30 in SSO 3.1 mph 6 mph 90% 0 in
02:39 72.7 °F 69.6 °F 30 in SO 3.2 mph 6.9 mph 90% 0 in
02:44 72.7 °F 69.6 °F 30 in SO 4 mph 7 mph 90% 0 in
02:49 72.7 °F 69.6 °F 30 in SO 4 mph 6.9 mph 90% 0 in
02:54 72.7 °F 69.6 °F 30 in SO 4.3 mph 7 mph 90% 0 in
02:59 72.7 °F 69.3 °F 30 in SSO 4.3 mph 10.4 mph 89.1% 0 in
03:04 72.7 °F 69.3 °F 30 in SSO 4.7 mph 10 mph 89% 0 in
03:09 72.7 °F 69.1 °F 30 in SO 4.7 mph 10 mph 88.3% 0 in
03:14 72.7 °F 68.9 °F 30 in SO 5.2 mph 8.1 mph 88% 0 in
03:19 72.7 °F 68.9 °F 30 in SO 5.2 mph 8 mph 88% 0 in
03:24 72.7 °F 68.9 °F 30 in SO 4.7 mph 8.1 mph 88% 0 in
03:29 72.7 °F 68.9 °F 30 in SO 4.7 mph 8 mph 88% 0 in
03:34 72.5 °F 68.7 °F 30 in SO 4.3 mph 7 mph 88% 0 in
03:39 72.3 °F 68.7 °F 30 in OSO 4.3 mph 6.2 mph 88.2% 0 in
03:44 72.3 °F 68.9 °F 30 in OSO 3.6 mph 6 mph 89% 0 in
03:49 72.1 °F 68.7 °F 30 in OSO 3.5 mph 6 mph 89% 0 in
03:54 72.1 °F 68.5 °F 30 in SO 3.1 mph 5.2 mph 89% 0 in
03:59 72 °F 68.5 °F 30 in SO 3.1 mph 6.2 mph 89.2% 0 in
04:04 72 °F 68.7 °F 30 in SO 3.1 mph 6 mph 90% 0 in
04:09 71.8 °F 68.7 °F 30 in SO 3.1 mph 5.2 mph 90% 0 in
04:14 71.8 °F 68.7 °F 30 in SO 3.1 mph 6.4 mph 90% 0 in
04:19 71.6 °F 68.5 °F 30 in SSO 3.2 mph 7 mph 90% 0 in
04:24 71.6 °F 68.5 °F 30 in SSO 3.6 mph 5.9 mph 90.5% 0 in
04:29 71.4 °F 68.7 °F 30 in SSO 3.6 mph 6.2 mph 91% 0 in
04:34 71.4 °F 68.7 °F 30 in SO 3.6 mph 6 mph 91% 0 in
04:39 71.2 °F 68.5 °F 30 in SSO 3.6 mph 5.9 mph 91% 0 in
04:44 71.2 °F 68.5 °F 30 in SSO 3.6 mph 6 mph 91% 0 in
04:49 71.1 °F 68.4 °F 30 in SSO 3.6 mph 6 mph 91% 0 in
04:54 71.1 °F 68.4 °F 30 in SSO 3.6 mph 6.9 mph 91% 0 in
04:59 71.1 °F 68.4 °F 30 in SSO 3.5 mph 7 mph 91% 0 in
05:04 71.1 °F 68.4 °F 30 in SSO 3.1 mph 6 mph 91% 0 in
05:09 70.9 °F 68.2 °F 30 in SO 3.1 mph 6 mph 91% 0 in
05:14 70.9 °F 68.2 °F 30 in SO 3.6 mph 6 mph 91% 0 in
05:19 70.9 °F 68 °F 30 in SSO 3.6 mph 6.9 mph 91% 0 in
05:24 70.7 °F 67.8 °F 30 in SO 3.6 mph 7 mph 91% 0 in
05:29 70.7 °F 67.8 °F 30 in SO 3.6 mph 6.9 mph 91% 0 in
05:34 70.7 °F 67.8 °F 30 in SO 4 mph 7 mph 91% 0 in
05:39 70.5 °F 67.8 °F 30 in SO 4 mph 6 mph 91% 0 in
05:44 70.7 °F 67.8 °F 30 in SO 3.1 mph 5.9 mph 91% 0 in
05:49 70.7 °F 67.8 °F 30 in SO 3.2 mph 6 mph 91% 0 in
05:54 70.7 °F 67.8 °F 30 in SO 4 mph 6.9 mph 91% 0 in
05:59 70.7 °F 67.8 °F 30 in SSO 4 mph 7 mph 91% 0 in
06:04 70.7 °F 67.8 °F 30 in SSO 4 mph 7 mph 91% 0 in
06:09 70.7 °F 67.8 °F 30 in SSO 4 mph 6 mph 90.5% 0 in
06:14 70.9 °F 67.8 °F 30 in SO 3.6 mph 6 mph 90% 0 in
06:19 70.9 °F 67.8 °F 30 in SO 3.5 mph 6 mph 90% 0 in
06:24 70.9 °F 67.6 °F 30 in OSO 3.1 mph 5 mph 89.5% 0 in
06:29 70.9 °F 67.5 °F 30 in SO 3.1 mph 7.4 mph 89% 0 in
06:34 71.1 °F 67.6 °F 30 in SO 3.6 mph 7 mph 89% 0 in
06:39 71.1 °F 67.6 °F 30 in SO 3.7 mph 7 mph 89% 0 in
06:44 71.1 °F 67.6 °F 30 in SO 4.3 mph 7 mph 88.5% 0 in
06:49 71.2 °F 67.5 °F 30 in SO 4.3 mph 6.9 mph 88% 0 in
06:54 71.2 °F 67.5 °F 30 in SO 4.3 mph 7 mph 88% 0 in
06:59 71.2 °F 67.3 °F 30 in SO 4.3 mph 7.4 mph 87.4% 0 in
07:04 71.2 °F 67.3 °F 30 in OSO 4.7 mph 7 mph 87% 0 in
07:09 71.2 °F 67.3 °F 30 in SO 4.7 mph 7 mph 87% 0 in
07:14 71.2 °F 67.3 °F 30 in SO 4.3 mph 7 mph 87% 0 in
07:19 71.2 °F 67.3 °F 30 in SSO 4.2 mph 6 mph 87% 0 in
07:24 71.2 °F 67.3 °F 30 in SO 3.1 mph 5 mph 87% 0 in
07:29 71.2 °F 67.3 °F 30 in SO 3 mph 5 mph 87% 0 in
07:34 71.1 °F 67.1 °F 30 in SSO 2 mph 5 mph 87% 0 in
07:39 71.1 °F 66.9 °F 30 in SO 2.1 mph 5.8 mph 87% 0 in
07:44 71.1 °F 67.1 °F 30 in SO 2.4 mph 6 mph 87.8% 0 in
07:49 70.9 °F 67.1 °F 30 in SO 2.5 mph 6.2 mph 88% 0 in
07:54 70.9 °F 67.1 °F 30 in SO 3.6 mph 6 mph 88% 0 in
07:59 70.7 °F 66.9 °F 30 in SO 3.5 mph 5.9 mph 88% 0 in
08:04 70.7 °F 66.9 °F 30 in SO 2.9 mph 6 mph 88% 0 in
08:09 70.7 °F 66.9 °F 30 in OSO 2.9 mph 6 mph 88% 0 in
08:14 70.7 °F 66.9 °F 30 in OSO 3.1 mph 5.2 mph 88% 0 in
08:19 70.7 °F 67.1 °F 30 in Oeste 3 mph 5 mph 88% 0 in
08:24 70.7 °F 66.9 °F 30 in OSO 2.4 mph 5 mph 88% 0 in
08:29 70.7 °F 66.9 °F 30 in OSO 2.4 mph 4.6 mph 88% 0 in
08:34 70.5 °F 66.7 °F 30 in SO 2.4 mph 5.2 mph 88% 0 in
08:39 70.7 °F 66.9 °F 30 in SO 2.4 mph 5 mph 88% 0 in
08:44 70.9 °F 67.1 °F 30 in SSO 2 mph 4 mph 88% 0 in
08:49 71.1 °F 67.1 °F 30 in SO 2 mph 5 mph 87.6% 0 in
08:54 71.2 °F 67.3 °F 30 in OSO 2 mph 5 mph 87% 0 in
08:59 71.6 °F 67.1 °F 30 in OSO 2.1 mph 5 mph 86.1% 0 in
09:04 71.8 °F 67.3 °F 30 in OSO 2.9 mph 6.2 mph 85.6% 0 in
09:09 72 °F 67.3 °F 30 in SO 3 mph 6.4 mph 85% 0 in
09:14 72.3 °F 67.5 °F 30 in SO 4 mph 7 mph 85% 0 in
09:19 72.5 °F 67.6 °F 30 in SO 4 mph 7 mph 84.6% 0 in
09:24 72.9 °F 67.5 °F 30 in OSO 3.6 mph 7 mph 83.4% 0 in
09:29 73 °F 67.5 °F 30 in SO 3.6 mph 7 mph 82.6% 0 in
09:34 73.2 °F 67.3 °F 30 in SO 3.6 mph 6 mph 82% 0 in
09:39 73.4 °F 67.3 °F 30 in SO 3.6 mph 6.9 mph 81.3% 0 in
09:44 73.8 °F 67.5 °F 30 in SO 4 mph 7.4 mph 80.9% 0 in
09:49 73.9 °F 67.3 °F 30 in OSO 4 mph 7.4 mph 80% 0 in
09:54 73.9 °F 67.5 °F 30 in OSO 4 mph 7 mph 80% 0 in
09:59 74.3 °F 67.5 °F 30 in SO 4 mph 7.4 mph 79.2% 0 in
10:04 74.5 °F 67.5 °F 30 in OSO 4.3 mph 8.1 mph 79% 0 in
10:09 74.5 °F 67.5 °F 30 in SO 4.3 mph 8 mph 79% 0 in
10:14 74.5 °F 67.6 °F 30 in SO 4.7 mph 7 mph 79% 0 in
10:19 74.7 °F 67.8 °F 30 in SSO 4.7 mph 7 mph 79% 0 in
10:24 74.8 °F 67.8 °F 30 in SSO 4 mph 7 mph 78.9% 0 in
10:29 75 °F 67.8 °F 30 in SSO 3.9 mph 6 mph 78.4% 0 in
10:34 75.4 °F 68 °F 30 in SSO 3.1 mph 6.2 mph 78.3% 0 in
10:39 75.6 °F 68.2 °F 30 in SSO 3.2 mph 6 mph 77.8% 0 in
10:44 75.7 °F 68 °F 30 in SO 3.6 mph 6 mph 77% 0 in
10:49 75.9 °F 68 °F 30 in SO 3.6 mph 6.9 mph 76.3% 0 in
10:54 76.3 °F 68 °F 30 in SSO 3.6 mph 7.4 mph 75.9% 0 in
10:59 76.5 °F 68 °F 30 in SO 3.7 mph 9.2 mph 75.5% 0 in
11:04 76.5 °F 68 °F 30 in SSO 4.7 mph 9 mph 75% 0 in
11:09 76.6 °F 68 °F 30 in Sur 4.7 mph 8.1 mph 74.8% 0 in
11:14 77 °F 68.2 °F 30 in SSE 4.7 mph 9.2 mph 74.1% 0 in
11:19 77.4 °F 68.2 °F 30 in Sur 4.7 mph 9 mph 73.4% 0 in
11:24 77.7 °F 68.2 °F 30 in SSO 4.7 mph 8.1 mph 72.7% 0 in
11:29 77.9 °F 68.2 °F 30 in SSO 4.6 mph 8 mph 72.3% 0 in
11:34 78.3 °F 68.4 °F 30 in OSO 2.9 mph 5.8 mph 71.5% 0 in
11:39 78.4 °F 68.4 °F 30 in Sur 2.9 mph 6 mph 71.2% 0 in
11:44 79 °F 68.5 °F 30 in SE 2.9 mph 6 mph 70.4% 0 in
11:49 79.3 °F 68.5 °F 30 in ESE 2.9 mph 6.9 mph 69.4% 0 in
11:54 79.5 °F 68.5 °F 30 in SSE 3.1 mph 7.4 mph 69% 0 in
11:59 79.7 °F 68 °F 30 in SSE 3.2 mph 7.6 mph 67.8% 0 in
12:04 79.5 °F 67.8 °F 30 in SE 3.6 mph 8 mph 67.2% 0 in
12:09 80.1 °F 68 °F 30 in SSE 3.5 mph 7 mph 67% 0 in
12:14 80.2 °F 68.2 °F 30 in ESE 2.9 mph 6.2 mph 66.5% 0 in
12:19 80.8 °F 68.2 °F 30 in ENE 2.8 mph 6 mph 65.9% 0 in
12:24 81.1 °F 67.8 °F 30 in SO 2 mph 6.9 mph 64.2% 0 in
12:29 81 °F 67.6 °F 30 in Sur 2.1 mph 7 mph 64% 0 in
12:34 81 °F 67.5 °F 30 in Este 3.1 mph 6 mph 63.5% 0 in
12:39 81 °F 67.8 °F 30 in SE 3.1 mph 6 mph 64.4% 0 in
12:44 81.1 °F 68 °F 30 in SO 3.1 mph 5 mph 64.1% 0 in
12:49 81.5 °F 68.2 °F 30 in ESE 3 mph 5.9 mph 63.9% 0 in
12:54 81.9 °F 68.2 °F 30 in ENE 2.4 mph 6 mph 63.2% 0 in
12:59 82 °F 67.8 °F 30 in North 2.4 mph 5.2 mph 62% 0 in
13:04 82.6 °F 67.8 °F 30 in NO 2.4 mph 5.9 mph 61% 0 in
13:09 82.4 °F 67.3 °F 30 in NNO 2.5 mph 6.2 mph 60.1% 0 in
13:14 82 °F 66.9 °F 30 in OSO 4 mph 6.9 mph 60.3% 0 in
13:19 82.2 °F 67.1 °F 30 in OSO 4 mph 7.4 mph 60.3% 0 in
13:24 82.2 °F 66.6 °F 30 in Oeste 3.6 mph 7 mph 59.1% 0 in
13:29 82.6 °F 67.1 °F 30 in North 3.5 mph 7.4 mph 59.6% 0 in
13:34 82.9 °F 66.9 °F 30 in SE 3.1 mph 9.2 mph 58.7% 0 in
13:39 83.1 °F 66.7 °F 30 in SE 3.2 mph 9 mph 57.8% 0 in
13:44 83.3 °F 66.7 °F 30 in Sur 4.3 mph 6 mph 57.5% 0 in
13:49 83.7 °F 66.7 °F 30 in NO 4.2 mph 6 mph 57.2% 0 in
13:54 83.8 °F 66.9 °F 30 in SE 2.4 mph 6.9 mph 56.9% 0 in
13:59 83.8 °F 66.7 °F 30 in Sur 2.6 mph 7.4 mph 56.5% 0 in
14:04 83.7 °F 66.9 °F 30 in Sur 4 mph 8.1 mph 57% 0 in
14:09 83.7 °F 67.1 °F 30 in Este 4.1 mph 12.7 mph 57.3% 0 in
14:14 83.7 °F 67.3 °F 30 in SE 5.2 mph 13 mph 58.3% 0 in
14:19 83.5 °F 67.8 °F 30 in SSE 5.3 mph 12 mph 59.3% 0 in
14:24 83.7 °F 68.2 °F 30 in SE 6.4 mph 13 mph 59.7% 0 in
14:29 83.8 °F 68.2 °F 30 in SSE 6.5 mph 13 mph 59.7% 0 in
14:34 83.8 °F 68.5 °F 30 in ESE 6.9 mph 11.8 mph 60.1% 0 in
14:39 83.7 °F 68.5 °F 30 in ESE 6.9 mph 15 mph 60.5% 0 in
14:44 83.5 °F 68.2 °F 30 in ESE 6.9 mph 15 mph 60.1% 0 in
14:49 83.3 °F 68.4 °F 30 in ESE 6.9 mph 15 mph 60.9% 0 in
14:54 83.7 °F 68.2 °F 30 in Este 6.4 mph 7.6 mph 60% 0 in
14:59 83.8 °F 68 °F 30 in ESE 6.2 mph 10.2 mph 59.1% 0 in
15:04 83.8 °F 68 °F 30 in ESE 4.7 mph 13.8 mph 59% 0 in
15:09 83.8 °F 67.6 °F 30 in ESE 4.9 mph 14 mph 58.3% 0 in
15:14 84 °F 67.6 °F 30 in ESE 6.9 mph 12 mph 58% 0 in
15:19 84.2 °F 67.5 °F 30 in Este 6.8 mph 10 mph 57.5% 0 in
15:24 84.6 °F 67.1 °F 30 in ESE 5.9 mph 11.5 mph 56.2% 0 in
15:29 84.2 °F 66.6 °F 30 in ESE 5.9 mph 12 mph 55.6% 0 in
15:34 84.2 °F 67.1 °F 30 in ESE 6.2 mph 10.4 mph 56.7% 0 in
15:39 84.4 °F 67.3 °F 30 in ESE 6.1 mph 12.7 mph 56.6% 0 in
15:44 84.2 °F 68.7 °F 30 in ESE 5.2 mph 15.2 mph 59.9% 0 in
15:49 83.7 °F 68.7 °F 30 in ESE 5.5 mph 15 mph 60.9% 0 in
15:54 83.5 °F 68.7 °F 30 in SE 8.7 mph 13.8 mph 61.1% 0 in
15:59 83.7 °F 69.1 °F 30 in ESE 8.8 mph 18.4 mph 61.7% 0 in
16:04 83.7 °F 69.3 °F 30 in SE 9.2 mph 18 mph 61.7% 0 in
16:09 83.7 °F 69.4 °F 30 in ESE 9.2 mph 16.1 mph 62.4% 0 in
16:14 83.7 °F 69.4 °F 30 in SE 9.2 mph 16 mph 62.4% 0 in
16:19 83.5 °F 69.4 °F 30 in SE 9.3 mph 17.3 mph 62.5% 0 in
16:24 83.3 °F 69.4 °F 30 in SE 9.7 mph 17 mph 63.1% 0 in
16:29 83.1 °F 69.1 °F 30 in SE 9.6 mph 14 mph 62.9% 0 in
16:34 83.1 °F 68.9 °F 30 in ESE 8.1 mph 15 mph 62.5% 0 in
16:39 83.3 °F 69.4 °F 30 in ESE 8.2 mph 15.2 mph 63% 0 in
16:44 83.5 °F 69.6 °F 30 in SE 9.2 mph 15 mph 63% 0 in
16:49 83.5 °F 69.6 °F 30 in SE 9.1 mph 15 mph 63% 0 in
16:54 83.5 °F 69.6 °F 30 in ESE 8.5 mph 16.1 mph 63.1% 0 in
16:59 83.5 °F 69.8 °F 30 in ESE 8.7 mph 18.4 mph 63.7% 0 in
17:04 83.5 °F 70 °F 30 in SE 10 mph 18 mph 64% 0 in
17:09 83.7 °F 70 °F 30 in SE 9.9 mph 15.2 mph 63.5% 0 in
17:14 83.1 °F 69.3 °F 30 in SE 8.5 mph 16.3 mph 62.8% 0 in
17:19 83.1 °F 69.4 °F 30 in SE 8.6 mph 16.1 mph 63.4% 0 in
17:24 83.1 °F 69.6 °F 30 in SE 10 mph 16 mph 63.7% 0 in
17:29 83.1 °F 69.3 °F 30 in SE 9.9 mph 15.6 mph 63.2% 0 in
17:34 83.3 °F 68.9 °F 30 in SE 8.5 mph 16 mph 62.1% 0 in
17:39 83.1 °F 68.9 °F 30 in SE 8.5 mph 15 mph 62.3% 0 in
17:44 83.1 °F 68.9 °F 30 in SE 8.5 mph 15 mph 62.2% 0 in
17:49 82.9 °F 69.1 °F 30 in SE 8.5 mph 14 mph 62.7% 0 in
17:54 82.9 °F 69.1 °F 30 in SE 8.7 mph 14 mph 63% 0 in
17:59 82.9 °F 69.1 °F 30 in SE 8.6 mph 14 mph 63% 0 in
18:04 83.1 °F 69.1 °F 30 in SSE 8.1 mph 13 mph 63% 0 in
18:09 82.9 °F 69.1 °F 30 in SE 8.1 mph 13 mph 63% 0 in
18:14 82.9 °F 68.9 °F 30 in SE 7.6 mph 18.4 mph 62.6% 0 in
18:19 82.8 °F 68.9 °F 30 in SE 7.7 mph 18 mph 62.9% 0 in
18:24 82.8 °F 68.7 °F 30 in SE 9.2 mph 14 mph 62.4% 0 in
18:29 82.8 °F 68.4 °F 30 in SE 9.1 mph 14 mph 62% 0 in
18:34 82.8 °F 68.4 °F 30 in SE 8.1 mph 13 mph 62.2% 0 in
18:39 82.6 °F 68.7 °F 30 in SE 8.1 mph 13.8 mph 62.9% 0 in
18:44 82.6 °F 68.7 °F 30 in SE 7.6 mph 14 mph 63% 0 in
18:49 82.6 °F 68.7 °F 30 in SE 7.5 mph 12 mph 63% 0 in
18:54 82.6 °F 68.7 °F 30 in SE 5.9 mph 10.7 mph 63% 0 in
18:59 82.6 °F 68.7 °F 30 in SE 5.9 mph 11 mph 63.1% 0 in
19:04 82.4 °F 68.5 °F 30 in SE 5.9 mph 10 mph 63% 0 in
19:09 82.2 °F 68.5 °F 30 in SE 5.9 mph 9 mph 63.2% 0 in
19:14 82.2 °F 68.4 °F 30 in SE 5.9 mph 9 mph 62.8% 0 in
19:19 82 °F 68.2 °F 30 in SE 5.8 mph 8.5 mph 62.9% 0 in
19:24 82 °F 68.2 °F 30 in SE 5.2 mph 10.7 mph 63% 0 in
19:29 81.9 °F 68.2 °F 30 in SE 5.2 mph 11 mph 63.4% 0 in
19:34 81.9 °F 68.4 °F 30 in SE 5.2 mph 8.1 mph 63.7% 0 in
19:39 81.9 °F 68.4 °F 30 in SE 5.2 mph 8 mph 64% 0 in
19:44 81.7 °F 68.4 °F 30 in SE 4.7 mph 8.1 mph 64.2% 0 in
19:49 81.7 °F 68.7 °F 30 in ESE 4.7 mph 8 mph 65% 0 in
19:54 81.3 °F 68.5 °F 30 in ESE 4.7 mph 8.1 mph 65.3% 0 in
19:59 81.1 °F 68.7 °F 30 in ESE 4.7 mph 7 mph 66% 0 in
20:04 81 °F 68.9 °F 30 in ESE 4.3 mph 6 mph 67% 0 in
20:09 80.8 °F 69.1 °F 30 in ESE 4.2 mph 6 mph 67.8% 0 in
20:14 80.6 °F 69.1 °F 30 in ESE 2.9 mph 5.2 mph 68% 0 in
20:19 80.4 °F 68.9 °F 30 in SE 2.9 mph 5 mph 68% 0 in
20:24 80.4 °F 68.9 °F 30 in ESE 2.9 mph 5.4 mph 68% 0 in
20:29 80.2 °F 68.7 °F 30 in ESE 2.9 mph 6 mph 68% 0 in
20:34 80.2 °F 68.7 °F 30 in ESE 3.6 mph 5 mph 68.1% 0 in
20:39 80.1 °F 68.7 °F 30 in Este 3.5 mph 5 mph 68.6% 0 in
20:44 79.9 °F 68.7 °F 30 in Este 2 mph 5 mph 69% 0 in
20:49 79.5 °F 68.7 °F 30 in ENE 2 mph 5 mph 69.3% 0 in
20:54 79.3 °F 68.7 °F 30 in Este 2 mph 5.9 mph 70% 0 in
20:59 79.3 °F 68.7 °F 30 in Este 2.1 mph 6 mph 70% 0 in
21:04 79.2 °F 68.9 °F 30 in Este 3.1 mph 5 mph 70.9% 0 in
21:09 79 °F 68.7 °F 30 in ENE 3.1 mph 5.9 mph 71% 0 in
21:14 78.8 °F 68.7 °F 30 in ESE 2.9 mph 6.2 mph 71.3% 0 in
21:19 78.6 °F 68.7 °F 30 in ESE 3 mph 6.2 mph 72% 0 in
21:24 78.4 °F 68.7 °F 30 in ESE 3.6 mph 6.4 mph 72.2% 0 in
21:29 78.4 °F 69.1 °F 30 in ESE 3.6 mph 7 mph 73% 0 in
21:34 78.3 °F 68.9 °F 30 in Este 3.6 mph 6 mph 73% 0 in
21:39 78.3 °F 68.9 °F 30 in ENE 3.5 mph 6.2 mph 73.2% 0 in
21:44 78.1 °F 69.1 °F 30 in NE 2.4 mph 6.9 mph 74% 0 in
21:49 77.7 °F 68.9 °F 30 in NE 2.5 mph 7 mph 74% 0 in
21:54 77.7 °F 68.9 °F 30 in NE 4 mph 6 mph 74.4% 0 in
21:59 77.5 °F 69.4 °F 30 in NE 4 mph 6.9 mph 75.9% 0 in
22:04 77.4 °F 69.4 °F 30 in NE 3.6 mph 7 mph 77% 0 in
22:09 77 °F 69.6 °F 30 in NNE 3.5 mph 5 mph 77.6% 0 in
22:14 76.8 °F 69.8 °F 30 in North 2.4 mph 6.2 mph 78.6% 0 in
22:19 76.6 °F 70 °F 30 in NE 2.5 mph 8.1 mph 80.2% 0 in
22:24 76.1 °F 70 °F 30 in NNE 3.6 mph 8 mph 81.5% 0 in
22:29 75.7 °F 70 °F 30 in NNE 3.5 mph 7 mph 82.4% 0 in
22:34 75.6 °F 70 °F 30 in NNE 2.9 mph 5 mph 83% 0 in
22:39 75.4 °F 70.2 °F 30 in North 2.9 mph 6.9 mph 84% 0 in
22:44 75.2 °F 70.2 °F 30 in NNE 2.9 mph 7 mph 84.3% 0 in
22:49 75 °F 70.2 °F 30 in NNE 2.9 mph 6 mph 85% 0 in
22:54 75 °F 70.2 °F 30 in NNE 2.9 mph 6.2 mph 85% 0 in
22:59 74.8 °F 70.2 °F 30 in NNE 2.9 mph 6 mph 85.2% 0 in
23:04 74.8 °F 70.3 °F 30 in NNE 2.9 mph 6.2 mph 86% 0 in
23:09 74.7 °F 70.2 °F 30 in NNE 2.9 mph 6 mph 86% 0 in
23:14 74.7 °F 70.2 °F 30 in NE 3.1 mph 5.9 mph 86% 0 in
23:19 74.5 °F 70 °F 30 in NE 3.2 mph 6.2 mph 86% 0 in
23:24 74.5 °F 70.2 °F 30 in NE 3.6 mph 6 mph 86.6% 0 in
23:29 74.5 °F 70.3 °F 30 in NE 3.5 mph 5 mph 87% 0 in
23:34 74.3 °F 70.2 °F 30 in NE 2.9 mph 5 mph 87% 0 in
23:39 74.1 °F 70 °F 30 in NE 2.9 mph 5 mph 87% 0 in
23:44 74.1 °F 70 °F 30 in NNE 3.1 mph 5.2 mph 87% 0 in
23:49 74.1 °F 70.3 °F 30 in NNE 3.2 mph 6.2 mph 87.9% 0 in
23:54 73.9 °F 70.2 °F 30 in NE 3.6 mph 6.2 mph 88% 0 in
23:59 73.9 °F 70.2 °F 30 in NE 3.6 mph 6 mph 88% 0 in
Murcia-Puente Tocinos, España
Compliments of Weather Underground - 3.5 mb

La estación de MeteoMurcia.com, publica sus datos en los siguientes proyectos:

Weather Underground PWS IMURCIAP2 Meteoclimatic www.awekas.at

W3Counter
Web Analytics